Погода в Хетове

Россия / Архангельская область     63°02′01″N   42°20′47″E
темп.,
°C
ветер,
м/с
пор.,
м/с
влажн.,
%
обл.,
%
осадки,
мм/ч
давл.,
гПа
погр.,
м
16 мая, вс
вс1600:00+16в31067100 0.0 1007290
03:00+14в41095100 4.8 1005553
06:00+15вюв379582 0.7 1004392
09:00+16ю4781100 3.2 1002945
12:00+14ю3992100 2.1 1002865
15:00+14ююз3794100 3.4 1003582
18:00+14сз3694100 0.3 1005393
21:00+12сз3794100 0.3 1007572
17 мая, пн
пн1700:00+11сз379498 0.0 1009400
03:00+10сз3895100 0.0 1011327
06:00+11сз3888100 0.0 1013385
09:00+15сз3470100 0.0 1015725
12:00+19зсз235352 0.0 10161249
15:00+21сз234613 0.0 10171807
18:00+21зюз114519 0.0 10171734
21:00+15ююв2268100 0.0 101811
18 мая, вт
вт1800:00+13ююв2577100 0.0 101993
03:00+12юв2883100 0.0 1020180
06:00+14юв3107598 0.0 1020303
09:00+19ююв5957100 0.0 1019797
12:00+22юв584492 0.0 10181303
15:00+24ююв584191 0.0 10161532
18:00+24ююв5948100 0.0 10151285
21:00+20юв414655 0.0 1014506
19 мая, ср
ср1900:00+18ююв415775 0.0 1014463
03:00+16ююв3128922 0.0 1014339
06:00+19ююв4117860 0.0 1013401
09:00+24ю585558 0.0 1012746
12:00+29ю59356 0.0 10121590
15:00+31ююз510255 0.0 10113451
18:00+29ю510295 0.0 10101292
21:00+23ю314494 0.0 1011438
20 мая, чт
чт2000:00+20ю415541 0.0 1011479
03:00+18ю3116930 0.0 1011310
06:00+20ююв38690 0.0 1011321
09:00+25ю4648100 0.0 1010864
12:00+29ю593294 0.0 10092548
15:00+29ююз5830100 0.0 10083053
18:00+24ююв37468 0.1 1007165
21:00+22юв3115999 0.3 1006309